Preview of NWS' New Version of Forecast
This preview is not operational and should not be used for support decisions.

Regional Weather Roundup (RWR)

Issued by National Weather Service (NWS)

                            
000
ASUS43 KDMX 180401
RWRIA 

WEATHER ROUNDUP FOR IOWA
NATIONAL WEATHER SERVICE DES MOINES IA
1000 PM CST SUN FEB 17 2019

NOTE: "FAIR" INDICATES FEW OR NO CLOUDS BELOW 12,000 FEET WITH NO
SIGNIFICANT WEATHER AND/OR OBSTRUCTIONS TO VISIBILITY.

* - THESE STATIONS ARE NOT NWS STATIONS...THUS NOT UNDER NWS
QUALITY CONTROL.  THEY ALSO DO NOT REPORT WEATHER SUCH 
AS PRECIPITATION OR FOG.  

IAZ001>003-012>014-020>022-031>034-043>046-180500-
   NORTHWEST IOWA
  
CITY           SKY/WX    TMP DP  RH WIND       PRES   REMARKS
CARROLL *      LGT SNOW  19  19 100 NW13      30.10R WCI   7          
CHEROKEE *     LGT SNOW  19  18  96 N3        30.14R                  
DENISON *      CLOUDY    18  16  93 NW9       30.14R WCI   6          
LE MARS *      CLOUDY    16  14  93 NW12      30.16R WCI   3          
ORANGE CITY *  LGT SNOW  18  16  93 N8        30.14R WCI   7          
SHELDON *      LGT SNOW  18  18 100 N13       30.13R WCI   4          
SIOUX CITY     LGT SNOW  16  13  88 NW15      30.18R FOG     WCI   1  
SPENCER        LGT SNOW  21  16  81 N12       30.12R WCI   9          
STORM LAKE *   LGT SNOW  18  18 100 N13       30.10R WCI   4          
$$
 
IAZ055>058-069>071-079>083-090>094-180500-
   SOUTHWEST IOWA
  
CITY           SKY/WX    TMP DP  RH WIND       PRES   REMARKS
ATLANTIC *     MIX PCPN  18  18 100 NW14      30.11R WCI   4          
AUDUBON *      FLURRIES  18  14  86 CALM      30.10R                  
CLARINDA *     CLOUDY    19  16  86 NW10      30.16R WCI   8          
COUNCIL BLFS * CLOUDY    18  18 100 NW15      30.14R WCI   3          
CRESTON *      FLURRIES  14  12  92 NW13      30.09R WCI   0          
HARLAN  *      FLURRIES  14  12  92 NW13      30.12R WCI   0          
LAMONI         MOCLDY    19  14  81 NW13      30.07R WCI   6          
RED OAK *      CLOUDY    18  18 100 NW7       30.15R WCI   8          
SHENANDOAH *   CLOUDY    18  16  93 NW9       30.17R WCI   6          
$$
 
IAZ047>049-059>061-072>074-084-180500-
   CENTRAL IOWA
  
CITY           SKY/WX    TMP DP  RH WIND       PRES   REMARKS
AMES           LGT SNOW  22  19  89 N12       30.07R FOG     WCI  10  
ANKENY *       LGT SNOW  23  19  86 NW9       30.08R WCI  13          
BOONE *        FLURRIES  21  21 100 N10       30.06R WCI  10          
CHARITON *     MIX PCPN  21  21 100 NW12G17   30.05R WCI   9          
DES MOINES     LGT SNOW  20  18  92 NW9       30.07R FOG     WCI   9  
GRINNELL*      LGT SNOW  23  22  94 N8        30.04R WCI  14          
KNOXVILLE *    FLURRIES  23  23 100 NW10      30.05R WCI  12          
MARSHALLTOWN   CLOUDY    20  19  96 N10       30.05R FOG     WCI   9  
NEWTON *       LGT SNOW  23  23 100 N8        30.05R WCI  14          
PELLA *        LGT SNOW  23  20  91 NW8       30.06R WCI  13          
PERRY *        LGT SNOW  20  20  98 CALM      30.09R                  
$$
 
IAZ004>006-015-016-023>025-035-036-180500-
   NORTH CENTRAL IOWA
  
CITY           SKY/WX    TMP DP  RH WIND       PRES   REMARKS
ALGONA *       LGT SNOW  19  19 100 N14       30.09R WCI   6          
CLARION *      FOG       19  19 100 NE14      30.09R VSB 1   WCI   6  
ESTHERVILLE    LGT SNOW  17  15  92 N15       30.12R FOG     WCI   2  
FORT DODGE *   LGT SNOW  19  17  92 N9        30.10R FOG     WCI   8  
MASON CITY     LGT SNOW  19  17  92 N13       30.09R FOG     WCI   6  
FOREST CITY *  LGT SNOW  21  19  93 N10       30.09R WCI  10          
IOWA FALLS *   LGT SNOW  22  20  92 N8        30.07R WCI  12          
$$

IAZ007>011-017>019-026>030-037>042-050>054-066-180500-
   NORTHEAST IOWA
  
CITY           SKY/WX    TMP DP  RH WIND       PRES   REMARKS
CEDAR RAPIDS   LGT SNOW  22  20  92 N8        30.01R FOG     WCI  12  
CHARLES CITY * FLURRIES  19  16  86 N9        30.07R WCI   9          
CLINTON *      FLURRIES  23  20  88 N13       30.00R WCI  11          
DECORAH *      CLOUDY    19  19 100 N7        30.05R WCI  10          
DUBUQUE        LGT SNOW  20  15  81 NE12      30.00R WCI   8          
OELWEIN *      CLOUDY    18  18 100 N13       30.04R WCI   4          
WATERLOO       CLOUDY    21  17  84 NE10      30.06R WCI  10          
$$
 
IAZ064-065-067-068-078-180500-
   EAST CENTRAL IOWA
  
CITY           SKY/WX    TMP DP  RH WIND       PRES   REMARKS
DAVENPORT      LGT SNOW  24  19  81 NE13      30.01R WCI  12          
IOWA CITY      LGT SNOW  24  20  84 N8        30.04R FOG     WCI  15  
MT. PLEASANT * LGT SNOW  27  27 100 NW7       30.00R WCI  19          
MUSCATINE *    LGT SNOW  25  23  93 NE14      30.02R WCI  13          
QUAD CITIES    LGT SNOW  26  21  81 N9        29.99R WCI  17          
$$
 
IAZ062-063-075>077-085>089-095>099-180500-
   SOUTHEAST IOWA
  
CITY           SKY/WX    TMP DP  RH WIND       PRES   REMARKS
BURLINGTON     LGT SNOW  25  21  85 NW8       29.99R FOG     WCI  16  
FAIRFIELD *    CLOUDY    25  23  93 NW12      30.00R FOG     WCI  14  
KEOKUK *       MOCLDY    25  23  93 NW7       30.00R WCI  17          
OSKALOOSA *    LGT SNOW  22  21  95 NW8       30.04R WCI  13          
OTTUMWA        LGT SNOW  23  21  92 NW10      30.03R FOG     WCI  12  
WASHINGTON *   CLOUDY    25  23  93 N10       30.02R FOG     WCI  15  
$$

ABBREVIATIONS USED IN REMARKS
   TC - TEMPERATURES IN CELSIUS
  WCI - WIND CHILL INDEX
   HX - HEAT INDEX
  VSB - VISIBILITY  
$$